JAT721 SAAR-SABE

Flight info

Callsign JAT721
Flight time 0h 37m
Altitude 21000
Route VASAL2G VASAL W20 MULTA W24 SNT SNT9R
Aircraft A320/M-SDE3FGHIRWY/LB1

Departure

Time 2026-04-21 23:29
Airport Rosario Islas Malvinas International Airport (SAAR)

Arrival

Time 2026-04-22 00:06
Airport Aeroparque Jorge Newbery (SABE)
Time Latitude Longitude Altitude Speed Heading
2026-04-21 23:03 -32.91605 -60.78119 97 ft 0 kts 110°
2026-04-21 23:03 -32.91604 -60.78122 96 ft 0 kts 111°
2026-04-21 23:16 -32.91603 -60.78125 95 ft 3 kts 111°
2026-04-21 23:16 -32.91596 -60.78147 97 ft 4 kts 110°
2026-04-21 23:17 -32.91587 -60.78177 96 ft 4 kts 107°
2026-04-21 23:17 -32.91581 -60.78208 95 ft 4 kts 86°
2026-04-21 23:17 -32.91589 -60.78229 95 ft 3 kts 21°
2026-04-21 23:17 -32.91609 -60.78238 94 ft 0 kts 21°
2026-04-21 23:20 -32.91607 -60.78237 94 ft 1 kts 21°
2026-04-21 23:21 -32.91589 -60.78229 95 ft 4 kts 21°
2026-04-21 23:21 -32.91557 -60.78214 95 ft 6 kts 21°
2026-04-21 23:21 -32.91510 -60.78193 97 ft 8 kts 21°
2026-04-21 23:21 -32.91451 -60.78166 97 ft 10 kts 20°
2026-04-21 23:22 -32.91384 -60.78194 95 ft 12 kts 321°
2026-04-21 23:22 -32.91316 -60.78260 95 ft 14 kts 321°
2026-04-21 23:22 -32.91237 -60.78337 95 ft 16 kts 321°
2026-04-21 23:22 -32.91146 -60.78423 97 ft 18 kts 321°
2026-04-21 23:23 -32.91034 -60.78506 98 ft 19 kts 336°
2026-04-21 23:23 -32.90904 -60.78560 98 ft 21 kts 344°
2026-04-21 23:23 -32.90754 -60.78557 97 ft 23 kts
2026-04-21 23:23 -32.90589 -60.78523 97 ft 25 kts 11°
2026-04-21 23:24 -32.90407 -60.78479 96 ft 28 kts 10°
2026-04-21 23:24 -32.90208 -60.78435 95 ft 30 kts 11°
2026-04-21 23:24 -32.90000 -60.78388 98 ft 31 kts 11°
2026-04-21 23:24 -32.89782 -60.78338 99 ft 32 kts 10°
2026-04-21 23:25 -32.89555 -60.78288 100 ft 34 kts 11°
2026-04-21 23:25 -32.89318 -60.78233 97 ft 36 kts 10°
2026-04-21 23:25 -32.89147 -60.78183 97 ft 18 kts 32°
2026-04-21 23:25 -32.89067 -60.78144 97 ft 7 kts 306°
2026-04-21 23:26 -32.89088 -60.78179 98 ft 6 kts 204°
2026-04-21 23:26 -32.89110 -60.78186 97 ft 0 kts 190°
2026-04-21 23:26 -32.89112 -60.78186 98 ft 1 kts 191°
2026-04-21 23:26 -32.89114 -60.78187 100 ft 0 kts 191°
2026-04-21 23:28 -32.89116 -60.78187 100 ft 4 kts 191°
2026-04-21 23:28 -32.89382 -60.78250 98 ft 73 kts 191°
2026-04-21 23:28 -32.90073 -60.78405 98 ft 126 kts 192°
2026-04-21 23:28 -32.91073 -60.78649 200 ft 160 kts 193°
2026-04-21 23:29 -32.92164 -60.78889 839 ft 159 kts 191°
2026-04-21 23:29 -32.93263 -60.79107 1447 ft 166 kts 191°
2026-04-21 23:29 -32.94443 -60.79372 1809 ft 183 kts 192°
2026-04-21 23:29 -32.95771 -60.79679 2054 ft 208 kts 192°
2026-04-21 23:30 -32.97221 -60.80008 2774 ft 213 kts 192°
2026-04-21 23:30 -32.98686 -60.80348 3576 ft 217 kts 192°
2026-04-21 23:30 -33.00186 -60.80694 4336 ft 223 kts 191°
2026-04-21 23:30 -33.01765 -60.80632 5019 ft 236 kts 167°
2026-04-21 23:31 -33.03250 -60.79724 5737 ft 248 kts 143°
2026-04-21 23:31 -33.04563 -60.78360 6521 ft 252 kts 143°
2026-04-21 23:31 -33.05892 -60.76964 7256 ft 257 kts 143°
2026-04-21 23:31 -33.07246 -60.75541 7982 ft 262 kts 143°
2026-04-21 23:32 -33.08629 -60.74089 8722 ft 267 kts 143°
2026-04-21 23:32 -33.10059 -60.72596 9260 ft 283 kts 144°
2026-04-21 23:32 -33.11615 -60.71003 9628 ft 304 kts 144°
2026-04-21 23:32 -33.13249 -60.69335 10004 ft 313 kts 144°
2026-04-21 23:33 -33.14936 -60.67609 10074 ft 332 kts 143°
2026-04-21 23:33 -33.16726 -60.65778 10081 ft 349 kts 143°
2026-04-21 23:33 -33.18582 -60.63866 10258 ft 359 kts 143°
2026-04-21 23:33 -33.20481 -60.61904 10943 ft 362 kts 143°
2026-04-21 23:34 -33.22400 -60.59916 11614 ft 367 kts 143°
2026-04-21 23:34 -33.24264 -60.57801 12256 ft 374 kts 137°
2026-04-21 23:34 -33.26055 -60.55520 12905 ft 378 kts 136°
2026-04-21 23:34 -33.27837 -60.53179 13553 ft 383 kts 135°
2026-04-21 23:35 -33.29627 -60.50788 14149 ft 388 kts 135°
2026-04-21 23:35 -33.31433 -60.48365 14695 ft 392 kts 135°
2026-04-21 23:35 -33.33256 -60.45918 15243 ft 397 kts 135°
2026-04-21 23:35 -33.35109 -60.43441 15788 ft 401 kts 135°
2026-04-21 23:36 -33.36982 -60.40946 16317 ft 406 kts 135°
2026-04-21 23:36 -33.38882 -60.38421 16851 ft 410 kts 135°
2026-04-21 23:36 -33.40807 -60.35867 17391 ft 415 kts 135°
2026-04-21 23:36 -33.42758 -60.33284 17924 ft 420 kts 135°
2026-04-21 23:37 -33.44725 -60.30675 18439 ft 424 kts 135°
2026-04-21 23:37 -33.46711 -60.28037 18913 ft 429 kts 135°
2026-04-21 23:37 -33.48715 -60.25367 19412 ft 432 kts 136°
2026-04-21 23:37 -33.50735 -60.22673 19914 ft 436 kts 136°
2026-04-21 23:38 -33.52768 -60.19962 20413 ft 440 kts 136°
2026-04-21 23:38 -33.54795 -60.17257 20863 ft 443 kts 136°
2026-04-21 23:38 -33.56881 -60.14470 21030 ft 444 kts 136°
2026-04-21 23:38 -33.58928 -60.11727 21063 ft 440 kts 136°
2026-04-21 23:39 -33.60939 -60.09033 21067 ft 438 kts 136°
2026-04-21 23:39 -33.62997 -60.06274 21068 ft 438 kts 136°
2026-04-21 23:39 -33.65006 -60.03584 21062 ft 438 kts 136°
2026-04-21 23:39 -33.67036 -60.00865 21074 ft 438 kts 136°
2026-04-21 23:40 -33.69070 -59.98135 21069 ft 438 kts 136°
2026-04-21 23:40 -33.71097 -59.95408 21062 ft 438 kts 136°
2026-04-21 23:40 -33.73129 -59.92674 21066 ft 438 kts 136°
2026-04-21 23:40 -33.75159 -59.89941 21062 ft 438 kts 136°
2026-04-21 23:41 -33.77186 -59.87209 21064 ft 438 kts 136°
2026-04-21 23:41 -33.79215 -59.84473 21070 ft 438 kts 136°
2026-04-21 23:41 -33.81245 -59.81742 21062 ft 438 kts 136°
2026-04-21 23:41 -33.83277 -59.79003 21074 ft 439 kts 136°
2026-04-21 23:42 -33.85304 -59.76265 21071 ft 439 kts 136°
2026-04-21 23:42 -33.87333 -59.73517 21069 ft 439 kts 136°
2026-04-21 23:42 -33.89357 -59.70775 21076 ft 439 kts 136°
2026-04-21 23:42 -33.91386 -59.68032 21079 ft 439 kts 136°
2026-04-21 23:43 -33.93415 -59.65289 21077 ft 439 kts 136°
2026-04-21 23:43 -33.95445 -59.62545 21077 ft 439 kts 136°
2026-04-21 23:43 -33.97475 -59.59795 21076 ft 439 kts 136°
2026-04-21 23:43 -33.99500 -59.57052 21072 ft 439 kts 136°
2026-04-21 23:44 -34.01528 -59.54296 21077 ft 439 kts 136°
2026-04-21 23:44 -34.03550 -59.51544 21073 ft 438 kts 136°
2026-04-21 23:44 -34.05573 -59.48795 21071 ft 438 kts 136°
2026-04-21 23:44 -34.07594 -59.46040 21071 ft 439 kts 136°
2026-04-21 23:45 -34.09615 -59.43279 21071 ft 438 kts 135°
2026-04-21 23:45 -34.13652 -59.37763 21075 ft 438 kts 135°
2026-04-21 23:45 -34.15647 -59.35030 20861 ft 430 kts 135°
2026-04-21 23:46 -34.17611 -59.32342 20473 ft 424 kts 136°
2026-04-21 23:46 -34.19561 -59.29683 20042 ft 421 kts 136°
2026-04-21 23:46 -34.21489 -59.27049 19606 ft 418 kts 135°
2026-04-21 23:46 -34.23403 -59.24426 19180 ft 414 kts 135°
2026-04-21 23:47 -34.25301 -59.21817 18764 ft 411 kts 135°
2026-04-21 23:47 -34.27187 -59.19227 18354 ft 408 kts 135°
2026-04-21 23:47 -34.29056 -59.16662 17879 ft 406 kts 135°
2026-04-21 23:47 -34.30918 -59.14107 17408 ft 403 kts 135°
2026-04-21 23:48 -34.32759 -59.11576 16942 ft 400 kts 135°
2026-04-21 23:48 -34.34567 -59.09087 16496 ft 397 kts 135°
2026-04-21 23:48 -34.36383 -59.06585 16043 ft 395 kts 135°
2026-04-21 23:48 -34.38185 -59.04098 15608 ft 392 kts 134°
2026-04-21 23:49 -34.39976 -59.01622 15173 ft 389 kts 134°
2026-04-21 23:49 -34.41531 -58.99473 14796 ft 387 kts 134°
2026-04-21 23:49 -34.43299 -58.97027 14363 ft 385 kts 134°
2026-04-21 23:49 -34.45040 -58.94618 13945 ft 374 kts 134°
2026-04-21 23:50 -34.46734 -58.92274 13493 ft 367 kts 134°
2026-04-21 23:50 -34.48405 -58.89964 13024 ft 363 kts 134°
2026-04-21 23:50 -34.50060 -58.87677 12567 ft 359 kts 134°
2026-04-21 23:50 -34.51700 -58.85407 12110 ft 356 kts 134°
2026-04-21 23:51 -34.53327 -58.83152 11674 ft 356 kts 134°
2026-04-21 23:51 -34.54956 -58.80890 11232 ft 356 kts 132°
2026-04-21 23:51 -34.56340 -58.78387 10801 ft 359 kts 118°
2026-04-21 23:51 -34.57260 -58.75571 10378 ft 359 kts 109°
2026-04-21 23:52 -34.58044 -58.72703 10074 ft 355 kts 109°
2026-04-21 23:52 -34.58811 -58.69907 10012 ft 342 kts 109°
2026-04-21 23:52 -34.59538 -58.67260 10031 ft 330 kts 109°
2026-04-21 23:52 -34.60273 -58.64623 10028 ft 329 kts 110°
2026-04-21 23:53 -34.61017 -58.62002 10029 ft 328 kts 110°
2026-04-21 23:53 -34.61637 -58.59342 10029 ft 328 kts 96°
2026-04-21 23:53 -34.61505 -58.56616 9680 ft 324 kts 71°
2026-04-21 23:53 -34.60513 -58.54211 9199 ft 316 kts 45°
2026-04-21 23:54 -34.58856 -58.52567 8752 ft 303 kts 19°
2026-04-21 23:54 -34.56883 -58.51961 8303 ft 287 kts 354°
2026-04-21 23:54 -34.55005 -58.52456 7858 ft 272 kts 328°
2026-04-21 23:54 -34.53607 -58.53894 7415 ft 262 kts 302°
2026-04-21 23:55 -34.53001 -58.55910 7113 ft 254 kts 274°
2026-04-21 23:55 -34.53316 -58.58005 6874 ft 258 kts 247°
2026-04-21 23:55 -34.54474 -58.59683 6641 ft 267 kts 219°
2026-04-21 23:55 -34.56225 -58.60521 6398 ft 279 kts 191°
2026-04-21 23:56 -34.58164 -58.60282 6138 ft 286 kts 163°
2026-04-21 23:56 -34.59855 -58.58995 5889 ft 292 kts 137°
2026-04-21 23:56 -34.60990 -58.56965 5727 ft 294 kts 112°
2026-04-21 23:56 -34.61720 -58.54638 5609 ft 296 kts 110°
2026-04-21 23:57 -34.62439 -58.52295 5482 ft 296 kts 110°
2026-04-21 23:57 -34.62914 -58.50747 5400 ft 294 kts 109°
2026-04-21 23:57 -34.63625 -58.48428 5279 ft 292 kts 110°
2026-04-21 23:57 -34.64332 -58.46121 5155 ft 292 kts 110°
2026-04-21 23:58 -34.65265 -58.43068 4992 ft 289 kts 110°
2026-04-21 23:58 -34.65964 -58.40785 4867 ft 288 kts 109°
2026-04-21 23:58 -34.66435 -58.39247 4785 ft 288 kts 109°
2026-04-21 23:58 -34.67132 -58.36970 4659 ft 287 kts 109°
2026-04-21 23:59 -34.67823 -58.34708 4524 ft 282 kts 109°
2026-04-21 23:59 -34.68500 -58.32490 4269 ft 279 kts 109°
2026-04-21 23:59 -34.69178 -58.30273 3941 ft 280 kts 110°
2026-04-21 23:59 -34.69857 -58.28056 3617 ft 280 kts 110°
2026-04-22 00:00 -34.70473 -58.25814 3297 ft 279 kts 101°
2026-04-22 00:00 -34.70534 -58.23490 3031 ft 273 kts 76°
2026-04-22 00:00 -34.69690 -58.21573 2983 ft 249 kts 37°
2026-04-22 00:00 -34.68217 -58.20776 2993 ft 225 kts 357°
2026-04-22 00:01 -34.66836 -58.21309 2996 ft 204 kts 315°
2026-04-22 00:01 -34.66009 -58.22639 2999 ft 200 kts 297°
2026-04-22 00:01 -34.65412 -58.24133 3001 ft 190 kts 296°
2026-04-22 00:01 -34.64762 -58.25456 3002 ft 172 kts 302°
2026-04-22 00:02 -34.64111 -58.26623 2768 ft 166 kts 301°
2026-04-22 00:02 -34.63514 -58.27816 2539 ft 161 kts 301°
2026-04-22 00:02 -34.62911 -58.28946 2340 ft 158 kts 302°
2026-04-22 00:02 -34.62301 -58.30060 2116 ft 158 kts 301°
2026-04-22 00:03 -34.61691 -58.31168 1891 ft 154 kts 300°
2026-04-22 00:03 -34.61123 -58.32192 1708 ft 140 kts 298°
2026-04-22 00:03 -34.60603 -58.33130 1508 ft 133 kts 298°
2026-04-22 00:03 -34.60092 -58.34052 1336 ft 131 kts 298°
2026-04-22 00:04 -34.59584 -58.34970 1159 ft 131 kts 300°
2026-04-22 00:04 -34.59079 -58.35879 996 ft 129 kts 300°
2026-04-22 00:04 -34.58575 -58.36786 814 ft 132 kts 300°
2026-04-22 00:04 -34.58061 -58.37713 646 ft 132 kts 299°
2026-04-22 00:05 -34.57545 -58.38644 464 ft 134 kts 302°
2026-04-22 00:05 -34.57024 -58.39585 285 ft 136 kts 300°
2026-04-22 00:05 -34.56493 -58.40542 100 ft 138 kts 300°
2026-04-22 00:05 -34.55988 -58.41468 27 ft 115 kts 303°
2026-04-22 00:06 -34.55628 -58.42113 27 ft 71 kts 304°
2026-04-22 00:06 -34.55452 -58.42428 26 ft 21 kts 306°
2026-04-22 00:06 -34.55406 -58.42498 29 ft 10 kts 325°
2026-04-22 00:06 -34.55362 -58.42475 25 ft 0 kts 63°
2026-04-22 00:07 -34.55362 -58.42473 25 ft 0 kts 66°
2026-04-22 00:07 -34.55360 -58.42467 25 ft 2 kts 69°
2026-04-22 00:07 -34.55362 -58.42434 25 ft 4 kts 101°
2026-04-22 00:08 -34.55370 -58.42388 25 ft 7 kts 103°
2026-04-22 00:08 -34.55395 -58.42333 29 ft 9 kts 127°
2026-04-22 00:08 -34.55437 -58.42267 30 ft 11 kts 128°
2026-04-22 00:08 -34.55488 -58.42186 26 ft 13 kts 127°
2026-04-22 00:09 -34.55548 -58.42088 26 ft 16 kts 127°
2026-04-22 00:09 -34.55616 -58.41973 26 ft 18 kts 124°
2026-04-22 00:09 -34.55689 -58.41841 27 ft 20 kts 124°
2026-04-22 00:09 -34.55758 -58.41702 27 ft 20 kts 115°
2026-04-22 00:10 -34.55823 -58.41545 27 ft 19 kts 116°
2026-04-22 00:10 -34.55879 -58.41410 28 ft 14 kts 117°
2026-04-22 00:10 -34.55910 -58.41335 27 ft 0 kts 105°
2026-04-22 00:10 -34.55909 -58.41329 29 ft 2 kts 85°
2026-04-22 00:11 -34.55901 -58.41312 29 ft 3 kts 52°
2026-04-22 00:11 -34.55876 -58.41291 25 ft 5 kts 31°
2026-04-22 00:11 -34.55835 -58.41291 27 ft 7 kts 328°
2026-04-22 00:11 -34.55802 -58.41348 29 ft 10 kts 303°
2026-04-22 00:12 -34.55765 -58.41415 26 ft 7 kts 304°
2026-04-22 00:12 -34.55737 -58.41420 27 ft 5 kts 33°
2026-04-22 00:12 -34.55723 -58.41408 25 ft 2 kts 33°
2026-04-22 00:12 -34.55718 -58.41404 26 ft 0 kts 32°
2026-04-22 00:26 -34.55719 -58.41405 26 ft 0 kts 31°